Location: Madden
(51.3728°N, 114.3297°W)
Time: 20:12:36
(UTC+00:00)

RS-44 - Pass Details

Date: 09 December 2023
Orbit: 1175 x 1509 km, 82.5° (Epoch: 29 February)

Event Time Altitude Azimuth Distance (km) Brightness Sun altitude
Rises 03:14:25 0° 351° (N) 4,167 ? -33.9°
Reaches altitude 10° 03:17:53 10° 6° (N) 3,160 ? -34.4°
Enters shadow 03:18:28 12° 9° (N) 3,011 ? -34.5°
